PIERNIKOWY BIEG CHARYTATYWNY DLA KRZYŚKA

Organizator:
Fundacja DUM SPIRO, SPERO z siedzibą w Bydgoszczy
Data:
2018-12-09
Miejsce:
Bydgoszcz
Dystans:
5 km
Zgłoszonych:
254
Wystartowało:
223
Nie ukończyło:
0
Ukończyło:
223
Na trasie:
0

Klasyfikacja: K-Open

Wyniki nieoficjalne !!!
Wyniki uproszczone: PDF | PDF2 | CSV
Klasyfikacje w punktach pomiarowych: Meta
Klasyfikacje wg kategorii: Wszyscy | K-Open | M-Open

MscZawodnikNumerKlubMiejscowośćKrajKategoriaMkatK/MCzas
netto
5km
Różn.Tempo
min/km
Tempo
km/h
     
1PALACZ Wioletta 18BYDGOSZCZK-Open1K 100:21:44.02 4:2013.8
2KONARSKA Svetlana 75ŚWIECIEK-Open2K 200:22:05.65+00:00:214:2513.6
3GROBELNA Angelika 48BYDGOSZCZ NA STARTNIEMCZK-Open3K 300:24:24.69+00:02:504:5312.3
4GIERSZEWSKA Grażyna 44BYDGOSZCZK-Open4K 400:25:00.30+00:03:185:0012
5TARCZYŃSKA Marta 171COOKIEFRIENDSRUNBYDGOSZCZYK-Open5K 500:25:05.34+00:03:305:0112
6DERESZYŃSKA Ewelina 27BYDGOSZCZK-Open6K 600:25:17.43+00:03:425:0311.9
7NAGORZYSKA Sylwia 237BYDGOSZCZK-Open7K 700:25:36.71+00:03:525:0711.7
8RUDOL Magdalena 211PRĘDOCINK-Open8K 800:25:52.39+00:04:165:1011.6
9KOPACZ Hanna 219BRUM BRUMBYDGOSZCZK-Open9K 900:26:12.66+00:04:435:1411.5
10DROCIAK Joanna 36BYDGOSZCZK-Open10K 1000:26:33.67+00:04:495:1811.3
11WOJCIECHCIŃSKA Emilia 30BYDGOSZCZK-Open11K 1100:26:22.22+00:04:515:1611.4
12GACA Anna Maria 42BYDGOSZCZK-Open12K 1200:26:28.29+00:05:065:1711.3
13BESS Anna 6BYDGOSZCZK-Open13K 1300:26:40.81+00:05:075:2011.2
14MAJDA Katarzyna 99BYDGOSKIE DZIKIBYDGOSZCZK-Open14K 1400:26:51.24+00:05:105:2211.2
15MIKOŁAJCZAK Paulina 105BYDGOSZCZK-Open15K 1500:26:52.42+00:05:115:2211.2
16PRZYBYLSKA Grażyna 127BYDGOSZCZ NA START, PSLABYDGOSZCZK-Open16K 1600:26:55.40+00:05:205:2311.1
17KUFLEWICZ Justyna 89BYDGOSZCZK-Open17K 1700:27:00.26+00:05:225:2411.1
18WAJER Marita 175STAFF ENEA BYDGOSZCZ TRIATHLONŚLESINK-Open18K 1800:27:10.45+00:05:335:2611
19BRZEZIŃSKA Marta 11BYDGOSZCZK-Open19K 1900:27:12.83+00:05:435:2611
20ADAMCZYK Agnieszka 31NAKŁO NAD NOTECIĄK-Open20K 2000:27:16.53+00:05:525:2711
21SAS Kasia 143AMATORSIENNOK-Open21K 2100:27:33.91+00:05:575:3010.9
22KALINOWSKA Patrycja 66SOLEC KUJAWSKIK-Open22K 2200:27:42.48+00:06:065:3210.8
23KULCZYŃSKA Małgorzata 230ŻNINK-Open23K 2300:27:48.06+00:06:075:3310.8
24JELEŃ Agnieszka 61VEGE RUNNERSBYDGOSZCZK-Open24K 2400:28:02.30+00:06:295:3610.7
25NUNZEK Agnieszka 282ZOLTOKROLEWSCY#B3KBYDGOSZCZK-Open25K 2500:28:05.38+00:06:435:3710.7
26WOJTYSIAK Dorota 194BYDGOSZCZK-Open26K 2600:28:06.54+00:06:445:3710.7
27PIOTROWSKA Justyna 215BYDGOSZCZK-Open27K 2700:28:22.65+00:06:495:4010.6
28KWIECIŃSKA Katarzyna 92SOLEC KUJAWSKIK-Open28K 2800:28:30.29+00:06:505:4210.5
29DANIELEK Ewa 25WARSZAWAK-Open29K 2900:28:25.57+00:06:535:4110.6
30PAŁASZYŃSKA Anna 87RUN PASJABYDGOSZCZK-Open30K 3000:28:31.21+00:07:015:4210.5
31LIPNIEWSKA Magdalena 95KOLNO 41A 86-200CHELMNOK-Open31K 3100:28:42.14+00:07:165:4410.5
32TYKWIŃSKA Agnieszka 173BYDGOSZCZK-Open32K 3200:28:53.99+00:07:195:4610.4
33CYCKOWSKA Karolina 22BYDGOSZCZK-Open33K 3300:29:08.78+00:07:245:4910.3
34JĘDRZEJEWSKA Danuta 63BYDGOSZCZK-Open34K 3400:28:55.80+00:07:245:4710.4
35NALEWALSKA Justyna 114SECE TYBETUBYDGOSZCZK-Open35K 3500:28:58.93+00:07:265:4710.4
36OLEJNICZAK Patrycja 121BAŻANT TEAMBYDGOSZCZK-Open36K 3600:29:00.69+00:07:295:4810.3
37FRYDRYCHOWICZ Lilianna 41BYDGOSZCZK-Open37K 3700:29:05.82+00:07:305:4910.3
38BINGER Katarzyna 8CHOJNICEK-Open38K 3800:29:01.49+00:07:385:4810.3
39BIERNACKA Anka 7BYDGOSZCZK-Open39K 3900:29:10.59+00:07:415:5010.3
40KOPROWICZ Kasia 77ŚWIECIEK-Open40K 4000:29:21.83+00:07:445:5210.2
41RYDELSKA Kinga 213BYDGOSZCZK-Open41K 4100:29:27.03+00:07:475:5310.2
42MIĘTUS Marta 103BYDGOSZCZK-Open42K 4200:29:54.60+00:08:145:5810
43JĘDRZEJEWSKA Karolina 62BYDGOSZCZK-Open43K 4300:30:01.23+00:08:166:0010
44DRERSKA Agnieszka 206BIAŁE BŁOTAK-Open44K 4400:29:59.62+00:08:256:0010
45KUŻNIAK Helena 189NIEMCZK-Open45K 4500:30:05.28+00:08:316:0110
46SOBOTA Beata 152BIAŁE BŁOTAK-Open46K 4600:30:04.41+00:08:406:0010
47KOTLAREK Weronika 239MUROWANIECK-Open47K 4700:30:41.96+00:08:586:089.8
48NOWICKA Tatiana 118ŚWIECIEK-Open48K 4800:30:35.17+00:09:096:079.8
49KŁOS Katarzyna 74ŁOCHOWOK-Open49K 4900:30:52.11+00:09:106:109.7
50KULWAS Magdalena 90BYDGOSZCZK-Open50K 5000:30:51.22+00:09:116:109.7
51SŁOMSKA Monika 149697570500ŚWIECIEK-Open51K 5100:30:36.59+00:09:126:079.8
52WALCZAK Joanna 177BYDGOSZCZK-Open52K 5200:30:51.39+00:09:126:109.7
53SPLITT Anna 154MROCZAK-Open53K 5300:31:00.31+00:09:206:129.7
54CYBUL Anna 21BYDGOSZCZK-Open54K 5400:31:02.51+00:09:226:129.7
55KOWALSKA Justyna 83BYDGOSZCZK-Open55K 5500:31:15.35+00:09:436:159.6
56SOBOCZYŃSKA Barbara 151KRUSZYNK-Open56K 5600:31:26.10+00:09:446:179.5
57LELEWSKA Aleksandra 94JANIKOWOK-Open57K 5700:31:12.70+00:09:466:149.6
58PIK Aleksandra 124BIAŁE BŁOTAK-Open58K 5800:31:22.28+00:10:066:169.6
59SZOPIŃSKA Justyna 164SEROCKK-Open59K 5900:31:22.41+00:10:086:169.6
60NOSKOWIAK-BAJNO Alicja 117BORÓWNOK-Open60K 6000:32:05.56+00:10:286:259.4
61GRZYBOWSKA Paulina 50BYDGOSZCZK-Open61K 6100:32:00.42+00:10:316:249.4
62MALCZEWSKA Mirka 274BYDGOSZCZK-Open62K 6200:32:13.72+00:10:446:269.3
63GRUDZKA Estera 227NAKŁO NAD NOTECIĄK-Open63K 6300:32:28.33+00:11:016:299.2
64KĄKOLEWSKA Monika 71JANIKOWOK-Open64K 6400:32:30.42+00:11:036:309.2
65SAK Ewa 222WOLONTARIUSZ SALUS HOMININAKŁO NAD NOTECIĄK-Open65K 6500:32:28.15+00:11:046:299.2
66MAJEWSKA Natalia 100NAKŁO NAD NOTECIĄK-Open66K 6600:32:47.99+00:11:076:339.1
67MINISZEWSKA Irena 107BYDGOSZCZK-Open67K 6700:32:35.03+00:11:176:319.2
68WELSBERG Magdalena 184BYDGOSZCZK-Open68K 6800:33:09.34+00:11:286:389
69RYBKA-RUDEWICZ Monika 140OL-TRANSBYDGOSZCZK-Open69K 6900:32:50.35+00:11:296:349.1
70WITKOWSKA Natalia 93BYDGOSZCZK-Open70K 7000:32:48.74+00:11:296:339.1
71BROŻYŃSKA Anna 229OSÓWEKK-Open71K 7100:33:18.89+00:12:006:399
72SPEIER Magdalena 153BYDGOSZCZK-Open72K 7200:33:22.12+00:12:056:409
73BŁASZCZYK Joanna 9BYDGOSZCZK-Open73K 7300:33:52.26+00:12:086:468.9
74KLETKIEWICZ Karolina 45BYDGOSZCZK-Open74K 7400:34:50.56+00:13:146:588.6
75ROZPŁOCH Karolina 138DRĄŻNOK-Open75K 7500:35:04.01+00:13:247:008.6
76NASKRĘT Daria 115BYDGOSZCZK-Open76K 7600:35:18.58+00:13:397:038.5
77REZMER Angelina 290BYDGOSZCZK-Open77K 7700:35:18.94+00:13:397:038.5
78SZPAKOWSKA Ewelina 313BYDGOSZCZK-Open78K 7800:34:49.34+00:13:486:588.6
79JĘDRZEJEWSKA Anna 205TORUŃK-Open79K 7900:36:15.09+00:14:347:158.3
80ROMPALSKA Lucyna 136MROCZAK-Open80K 8000:36:36.02+00:14:597:198.2
81WNUK Małgorzata 191MROCZAK-Open81K 8100:36:38.07+00:15:017:198.2
82WEINEROWSKA Magdalena 182BYDGOSZCZK-Open82K 8200:36:46.22+00:15:337:218.2
83SZPECHCIŃSKA Natalia 166KOZIA GÓRAK-Open83K 8300:37:21.12+00:15:447:288
84SKORUPA Małgorzata 147KOSOWOK-Open84K 8400:37:21.86+00:15:447:288
85KULCZYŃSKA Dagmara 231ŻNINK-Open85K 8500:37:26.89+00:15:457:298
86MARCINIAK Monika 226NAKŁO NAD NOTECIĄK-Open86K 8600:37:13.02+00:15:477:268.1
87CIESIELSKA Agnieszka 224FUNDACJA SALUS HONIKINAKŁO NAD NOTECIĄK-Open87K 8700:37:12.85+00:15:477:268.1
88SMOLIŃSKA Daria 223WOLONTARIUSZ SALUS HOMININAKŁO NAD NOTECIĄK-Open88K 8800:37:13.58+00:15:487:268.1
89RAPKIEWICZ Ilona 131BYDGOSZCZK-Open89K 8900:39:31.14+00:18:017:547.6
90WOŹNIAK Monika 196BYDGOSZCZK-Open90K 9000:39:34.75+00:18:057:547.6
91KRZYWDZIŃSKA Alicja 85BYDGOSZCZK-Open91K 9100:41:14.02+00:19:428:147.3
92DERESZYŃSKA Teresa 84BYDGOSZCZK-Open92K 9200:46:03.49+00:24:599:126.5
93CAŁCZYŃSKA Barbara 15DZIEMIONNAK-Open93K 9300:50:26.19+00:29:2210:055.9
Znaleziono 93 wynik(ów)